N5VKM Weather Reports


Display with metric or nautical units.
time (UTC)temp
F
wind
direction
speed
MPH
gust
MPH
rain 1hr
in
rain 24hr
in
rain mn
in
humidity
%
barometer
mb
20260902192542 96 329 0.0 0.0 0.00 0.00 0.00 48 1014.1
20260902192101 96 329 0.0 0.0 0.00 0.00 0.00 48 1014.2
20260902191535 97 329 0.0 0.0 0.00 0.00 0.00 47 1014.3
20260902191042 97 329 0.0 0.0 0.00 0.00 0.00 47 1014.3
20260902190534 97 329 0.0 0.0 0.00 0.00 0.00 48 1014.4
20260902190041 97 331 0.0 0.0 0.00 0.00 0.00 48 1014.4
20260902185533 98 331 0.0 0.0 0.00 0.00 0.00 47 1014.5
20260902185027 97 331 0.0 0.0 0.00 0.00 0.00 47 1014.5
20260902184558 97 328 0.0 0.0 0.00 0.00 0.00 47 1014.6
20260902184046 96 330 0.0 0.0 0.00 0.00 0.00 48 1014.8
20260902183536 96 329 0.0 0.0 0.00 0.00 0.00 48 1014.9
20260902183043 96 331 0.0 0.0 0.00 0.00 0.00 49 1015.0
20260902182530 96 331 0.0 0.0 0.00 0.00 0.00 49 1015.0
20260902182038 96 331 0.0 0.0 0.00 0.00 0.00 50 1015.1
20260902181547 96 331 0.0 0.0 0.00 0.00 0.00 50 1015.3
20260902181037 95 331 0.0 0.0 0.00 0.00 0.00 50 1015.4
20260902180530 95 336 0.0 0.0 0.00 0.00 0.00 51 1015.4
20260902180041 95 336 0.0 0.0 0.00 0.00 0.00 50 1015.6
20260902175531 95 329 0.0 0.0 0.00 0.00 0.00 52 1015.7
20260902175058 94 331 0.0 0.0 0.00 0.00 0.00 52 1015.8
20260902174528 94 330 0.0 0.0 0.00 0.00 0.00 51 1015.8
20260902174046 94 329 0.0 0.0 0.00 0.00 0.00 52 1016.0
20260902173533 94 332 0.0 0.0 0.00 0.00 0.00 53 1016.0
20260902173043 93 330 0.0 0.0 0.00 0.00 0.00 54 1016.0
20260902172530 93 332 0.0 0.0 0.00 0.00 0.00 53 1016.1
20260902172038 93 330 0.0 0.0 0.00 0.00 0.00 54 1016.3
20260902171528 93 332 0.0 0.0 0.00 0.00 0.00 55 1016.3
20260902171045 93 330 0.0 0.0 0.00 0.00 0.00 55 1016.4
20260902170531 92 331 0.0 0.0 0.00 0.00 0.00 58 1016.4
20260902170043 92 330 0.0 0.0 0.00 0.00 0.00 57 1016.6
20260902165533 92 332 0.0 0.0 0.00 0.00 0.00 58 1016.7
20260902165030 91 330 0.0 0.0 0.00 0.00 0.00 58 1016.6
20260902164539 91 331 0.0 0.0 0.00 0.00 0.00 59 1016.7
20260902164033 91 330 0.0 0.0 0.00 0.00 0.00 59 1016.7
20260902163545 91 331 0.0 0.0 0.00 0.00 0.00 59 1016.8
20260902163033 91 331 0.0 0.0 0.00 0.00 0.00 60 1016.9
20260902162544 91 330 0.0 0.0 0.00 0.00 0.00 61 1016.9
20260902162030 91 330 0.0 0.0 0.00 0.00 0.00 61 1017.0
20260902161544 90 332 0.0 0.0 0.00 0.00 0.00 61 1017.0
20260902161037 90 330 0.0 0.0 0.00 0.00 0.00 61 1017.0
20260902160546 90 331 0.0 0.0 0.00 0.00 0.00 61 1017.0
20260902160036 90 332 0.0 0.0 0.00 0.00 0.00 63 1017.1
20260902155547 89 332 0.0 0.0 0.00 0.00 0.00 63 1017.1
20260902155034 89 330 0.0 0.0 0.00 0.00 0.00 63 1017.1
20260902154545 88 331 0.0 0.0 0.00 0.00 0.00 64 1017.0
20260902154034 88 331 0.0 0.0 0.00 0.00 0.00 65 1017.0
20260902153546 88 330 0.0 0.0 0.00 0.00 0.00 66 1017.0
20260902153033 88 331 0.0 0.0 0.00 0.00 0.00 66 1016.9
20260902152530 88 331 0.0 0.0 0.00 0.00 0.00 66 1016.8
20260902152059 88 331 0.0 0.0 0.00 0.00 0.00 67 1016.8
20260902151545 88 332 0.0 0.0 0.00 0.00 0.00 67 1016.8
20260902151043 87 331 0.0 0.0 0.00 0.00 0.00 68 1016.8
20260902150530 87 332 0.0 0.0 0.00 0.00 0.00 68 1016.7
20260902150106 87 332 0.0 0.0 0.00 0.00 0.00 69 1016.7
20260902145542 87 331 0.0 0.0 0.00 0.00 0.00 69 1016.7
20260902145033 86 331 0.0 0.0 0.00 0.00 0.00 70 1016.7
20260902144544 86 333 0.0 0.0 0.00 0.00 0.00 71 1016.7
20260902144055 85 334 0.0 0.0 0.00 0.00 0.00 71 1016.7
20260902143605 85 333 0.0 0.0 0.00 0.00 0.00 71 1016.7
20260902143040 85 333 0.0 0.0 0.00 0.00 0.00 72 1016.7
20260902142530 84 333 0.0 0.0 0.00 0.00 0.00 72 1016.7
20260902142037 84 333 0.0 0.0 0.00 0.00 0.00 72 1016.7
20260902141549 84 333 0.0 0.0 0.00 0.00 0.00 72 1016.7
20260902141036 84 331 0.0 0.0 0.00 0.00 0.00 72 1016.7
20260902140527 84 333 0.0 0.0 0.00 0.00 0.00 72 1016.6
20260902140109 83 333 0.0 0.0 0.00 0.00 0.00 73 1016.7
20260902135536 83 333 0.0 0.0 0.00 0.00 0.00 73 1016.7
20260902135046 83 332 0.0 0.0 0.00 0.00 0.00 73 1016.7
20260902134534 83 332 0.0 0.0 0.00 0.00 0.00 74 1016.7
20260902134041 82 333 0.0 0.0 0.00 0.00 0.00 74 1016.7
20260902133534 82 331 0.0 0.0 0.00 0.00 0.00 75 1016.7
20260902133027 82 333 0.0 0.0 0.00 0.00 0.00 75 1016.7
20260902132539 82 334 0.0 0.0 0.00 0.00 0.00 75 1016.7
20260902132109 81 333 0.0 0.0 0.00 0.00 0.00 76 1016.6
20260902131536 81 333 0.0 0.0 0.00 0.00 0.00 76 1016.6
20260902131043 80 332 0.0 0.0 0.00 0.00 0.00 77 1016.4
20260902130554 80 332 0.0 0.0 0.00 0.00 0.00 77 1016.4
20260902130039 79 331 0.0 0.0 0.00 0.00 0.00 78 1016.3
20260902125551 79 333 0.0 0.0 0.00 0.00 0.00 78 1016.3
20260902125040 79 332 0.0 0.0 0.00 0.00 0.00 79 1016.3
20260902124533 78 333 0.0 0.0 0.00 0.00 0.00 79 1016.3
20260902124040 78 333 0.0 0.0 0.00 0.00 0.00 80 1016.3
20260902123532 78 333 0.0 0.0 0.00 0.00 0.00 80 1016.2
20260902123046 77 333 0.0 0.0 0.00 0.00 0.00 80 1016.2
20260902122539 77 333 0.0 0.0 0.00 0.00 0.00 80 1016.1
20260902122046 77 333 0.0 0.0 0.00 0.00 0.00 80 1016.1
20260902121542 77 333 0.0 0.0 0.00 0.00 0.00 80 1016.1
20260902121030 77 333 0.0 0.0 0.00 0.00 0.00 80 1016.1
20260902120542 77 333 0.0 0.0 0.00 0.00 0.00 80 1016.0
20260902120028 77 333 0.0 0.0 0.00 0.00 0.00 80 1016.0
20260902115602 77 333 0.0 0.0 0.00 0.00 0.00 80 1016.0
20260902115028 77 333 0.0 0.0 0.00 0.00 0.00 80 1016.1
20260902114601 77 333 0.0 0.0 0.00 0.00 0.00 80 1016.0
20260902114033 77 333 0.0 0.0 0.00 0.00 0.00 80 1015.9
20260902113530 77 333 0.0 0.0 0.00 0.00 0.00 80 1015.9
20260902113038 77 333 0.0 0.0 0.00 0.00 0.00 80 1015.9
20260902112546 77 333 0.0 0.0 0.00 0.00 0.00 80 1015.9
20260902112038 77 333 0.0 0.0 0.00 0.00 0.00 80 1016.0
20260902111547 77 333 0.0 0.0 0.00 0.00 0.00 80 1016.0
20260902111036 78 333 0.0 0.0 0.00 0.00 0.00 79 1016.0
20260902110543 78 333 0.0 0.0 0.00 0.00 0.00 79 1016.0
20260902110031 78 333 0.0 0.0 0.00 0.00 0.00 79 1015.9
20260902105542 78 333 0.0 0.0 0.00 0.00 0.00 78 1016.0
20260902105029 78 333 0.0 0.0 0.00 0.00 0.00 78 1016.0
20260902104536 78 333 0.0 0.0 0.00 0.00 0.00 78 1016.0
20260902104044 79 333 0.0 0.0 0.00 0.00 0.00 78 1016.0
20260902103530 79 333 0.0 0.0 0.00 0.00 0.00 78 1016.0
20260902103104 79 333 0.0 0.0 0.00 0.00 0.00 78 1016.0
20260902102533 79 333 0.0 0.0 0.00 0.00 0.00 78 1016.0
20260902102040 79 333 0.0 0.0 0.00 0.00 0.00 78 1016.0
20260902101531 79 333 0.0 0.0 0.00 0.00 0.00 78 1016.0
20260902101042 79 333 0.0 0.0 0.00 0.00 0.00 78 1016.0
20260902100532 79 333 0.0 0.0 0.00 0.00 0.00 77 1016.0
20260902100026 79 333 0.0 0.0 0.00 0.00 0.00 77 1016.0
20260902095540 79 333 0.0 0.0 0.00 0.00 0.00 77 1015.9
20260902095033 79 333 0.0 0.0 0.00 0.00 0.00 77 1015.9
20260902094540 80 333 0.0 0.0 0.00 0.00 0.00 77 1015.9
20260902094030 80 333 0.0 0.0 0.00 0.00 0.00 77 1015.9
20260902093540 80 333 0.0 0.0 0.00 0.00 0.00 77 1015.8
20260902093031 80 333 0.0 0.0 0.00 0.00 0.00 77 1015.8
20260902092606 80 333 0.0 0.0 0.00 0.00 0.00 77 1015.8
20260902092039 80 333 0.0 0.0 0.00 0.00 0.00 76 1015.8
20260902091548 80 333 0.0 0.0 0.00 0.00 0.00 76 1015.8
20260902091036 80 333 0.0 0.0 0.00 0.00 0.00 76 1015.8
20260902090545 80 333 0.0 0.0 0.00 0.00 0.00 76 1015.8
20260902090056 81 333 0.0 0.0 0.00 0.00 0.00 75 1015.7
20260902085543 81 333 0.0 0.0 0.00 0.00 0.00 75 1015.8
20260902085030 81 333 0.0 0.0 0.00 0.00 0.00 75 1015.7
20260902084542 81 333 0.0 0.0 0.00 0.00 0.00 74 1015.8
20260902084033 81 333 0.0 0.0 0.00 0.00 0.00 74 1015.8
20260902083541 81 333 0.0 0.0 0.00 0.00 0.00 74 1015.8
20260902083028 81 333 0.0 0.0 0.00 0.00 0.00 74 1015.8
20260902082539 81 333 0.0 0.0 0.00 0.00 0.00 73 1015.9
20260902082047 81 333 0.0 0.0 0.00 0.00 0.00 73 1015.9
20260902081534 82 333 0.0 0.0 0.00 0.00 0.00 73 1015.9
20260902081047 82 333 0.0 0.0 0.00 0.00 0.00 73 1015.9
20260902080536 82 333 0.0 0.0 0.00 0.00 0.00 72 1015.8
20260902080046 82 333 0.0 0.0 0.00 0.00 0.00 72 1015.8
20260902075537 82 333 0.0 0.0 0.00 0.00 0.00 72 1015.7
20260902075106 82 333 0.0 0.0 0.00 0.00 0.00 72 1015.7
20260902074553 83 333 0.0 0.0 0.00 0.00 0.00 71 1015.8
20260902074107 83 333 0.0 0.0 0.00 0.00 0.00 71 1015.8
20260902073543 83 333 0.0 0.0 0.00 0.00 0.00 71 1015.8
20260902073030 83 333 0.0 0.0 0.00 0.00 0.00 70 1015.8
20260902072545 83 333 0.0 0.0 0.00 0.00 0.00 70 1015.9
20260902072032 84 333 0.0 0.0 0.00 0.00 0.00 70 1015.9
20260902071605 84 333 0.0 0.0 0.00 0.00 0.00 69 1015.9
20260902071056 84 333 0.0 0.0 0.00 0.00 0.00 69 1015.9
20260902070543 84 333 0.0 0.0 0.00 0.00 0.00 69 1015.8
20260902070035 84 333 0.0 0.0 0.00 0.00 0.00 69 1015.9
20260902065546 84 333 0.0 0.0 0.00 0.00 0.00 68 1015.8
20260902065034 84 333 0.0 0.0 0.00 0.00 0.00 68 1015.8
20260902064540 84 333 0.0 0.0 0.00 0.00 0.00 68 1015.6
20260902064033 85 333 0.0 0.0 0.00 0.00 0.00 68 1015.6
20260902063607 85 333 0.0 0.0 0.00 0.00 0.00 68 1015.5
20260902063032 85 333 0.0 0.0 0.00 0.00 0.00 67 1015.5
20260902062544 85 333 0.0 0.0 0.00 0.00 0.00 67 1015.5
20260902062033 85 333 0.0 0.0 0.00 0.00 0.00 67 1015.6
20260902061544 85 333 0.0 0.0 0.00 0.00 0.00 67 1015.6
20260902061032 85 333 0.0 0.0 0.00 0.00 0.00 66 1015.5
20260902060527 85 333 0.0 0.0 0.00 0.00 0.00 66 1015.6
20260902060037 86 333 0.0 0.0 0.00 0.00 0.00 66 1015.6
20260902055537 86 333 0.0 0.0 0.00 0.00 0.00 66 1015.6
20260902055103 86 333 0.0 0.0 0.00 0.00 0.00 65 1015.6
20260902054538 86 333 0.0 0.0 0.00 0.00 0.00 65 1015.6
20260902054047 86 333 0.0 0.0 0.00 0.00 0.00 65 1015.6
20260902053535 86 333 0.0 0.0 0.00 0.00 0.00 64 1015.5
20260902053046 86 333 0.0 0.0 0.00 0.00 0.00 64 1015.4
20260902052533 87 333 0.0 0.0 0.00 0.00 0.00 64 1015.5
20260902052108 87 331 0.0 0.0 0.00 0.00 0.00 63 1015.5
20260902051538 87 332 0.0 0.0 0.00 0.00 0.00 63 1015.5
20260902051045 87 333 0.0 0.0 0.00 0.00 0.00 62 1015.5
20260902050534 87 333 0.0 0.0 0.00 0.00 0.00 62 1015.5
20260902050044 87 333 0.0 0.0 0.00 0.00 0.00 62 1015.5
20260902045554 87 333 0.0 0.0 0.00 0.00 0.00 61 1015.4
20260902045100 87 333 0.0 0.0 0.00 0.00 0.00 61 1015.4
20260902044529 87 332 0.0 0.0 0.00 0.00 0.00 60 1015.5
20260902044045 88 332 0.0 0.0 0.00 0.00 0.00 59 1015.5
20260902043531 88 333 0.0 0.0 0.00 0.00 0.00 59 1015.5
20260902043044 88 333 0.0 0.0 0.00 0.00 0.00 58 1015.4
20260902042536 88 332 0.0 0.0 0.00 0.00 0.00 57 1015.5
20260902042046 88 332 0.0 0.0 0.00 0.00 0.00 57 1015.4
20260902041536 88 333 0.0 0.0 0.00 0.00 0.00 57 1015.3
20260902041047 88 333 0.0 0.0 0.00 0.00 0.00 57 1015.3
20260902040535 89 332 0.0 0.0 0.00 0.00 0.00 57 1015.2
20260902040041 89 332 0.0 0.0 0.00 0.00 0.00 57 1015.2
20260902035541 89 332 0.0 0.0 0.00 0.00 0.00 57 1015.1
20260902035027 89 332 0.0 0.0 0.00 0.00 0.00 57 1015.1
20260902034602 89 333 0.0 0.0 0.00 0.00 0.00 57 1015.1
20260902034048 89 332 0.0 0.0 0.00 0.00 0.00 56 1015.1
20260902033537 89 333 0.0 0.0 0.00 0.00 0.00 56 1015.1
20260902033046 89 332 0.0 0.0 0.00 0.00 0.00 56 1015.1
20260902032531 89 332 0.0 0.0 0.00 0.00 0.00 56 1015.0
20260902032045 89 332 0.0 0.0 0.00 0.00 0.00 56 1014.9
20260902031536 90 332 0.0 0.0 0.00 0.00 0.00 55 1014.9
20260902031109 90 332 0.0 0.0 0.00 0.00 0.00 55 1014.9
20260902030536 90 332 0.0 0.0 0.00 0.00 0.00 55 1014.8
20260902030043 90 332 0.0 0.0 0.00 0.00 0.00 55 1014.7
20260902025534 90 332 0.0 0.0 0.00 0.00 0.00 55 1014.6
20260902025109 90 332 0.0 0.0 0.00 0.00 0.00 54 1014.6
20260902024535 90 332 0.0 0.0 0.00 0.00 0.00 54 1014.5
20260902024037 90 332 0.0 0.0 0.00 0.00 0.00 54 1014.5
20260902023544 91 332 0.0 0.0 0.00 0.00 0.00 54 1014.4
20260902023056 91 332 0.0 0.0 0.00 0.00 0.00 53 1014.4
20260902022545 91 332 0.0 0.0 0.00 0.00 0.00 53 1014.3
20260902022057 91 333 0.0 0.0 0.00 0.00 0.00 53 1014.2
20260902021544 91 332 0.0 0.0 0.00 0.00 0.00 53 1014.2
20260902021031 91 332 0.0 0.0 0.00 0.00 0.00 53 1014.1
20260902020605 91 332 0.0 0.0 0.00 0.00 0.00 53 1014.0
20260902020031 91 332 0.0 0.0 0.00 0.00 0.00 53 1013.9
20260902015545 91 332 0.0 0.0 0.00 0.00 0.00 53 1013.8
20260902015037 91 332 0.0 0.0 0.00 0.00 0.00 53 1013.7
20260902014544 91 332 0.0 0.0 0.00 0.00 0.00 52 1013.6
20260902014031 92 332 0.0 0.0 0.00 0.00 0.00 52 1013.6
20260902013542 92 332 0.0 0.0 0.00 0.00 0.00 51 1013.5
20260902013056 92 333 0.0 0.0 0.00 0.00 0.00 51 1013.4
20260902012544 93 333 0.0 0.0 0.00 0.00 0.00 50 1013.4
20260902012055 93 333 0.0 0.0 0.00 0.00 0.00 50 1013.3
20260902011542 93 333 0.0 0.0 0.00 0.00 0.00 49 1013.2
20260902011053 94 333 0.0 0.0 0.00 0.00 0.00 49 1013.2
20260902010541 94 333 0.0 0.0 0.00 0.00 0.00 48 1013.2
20260902010029 94 333 0.0 0.0 0.00 0.00 0.00 48 1013.1
20260902005540 94 333 0.0 0.0 0.00 0.00 0.00 47 1013.1
20260902005049 95 332 0.0 0.0 0.00 0.00 0.00 47 1013.1
20260902004539 95 332 0.0 0.0 0.00 0.00 0.00 46 1013.2
20260902004033 95 332 0.0 0.0 0.00 0.00 0.00 46 1013.2
20260902003545 96 332 0.0 0.0 0.00 0.00 0.00 45 1013.2
20260902003039 96 333 0.0 0.0 0.00 0.00 0.00 45 1013.3
20260902002536 96 332 0.0 0.0 0.00 0.00 0.00 44 1013.3
20260902002044 96 332 0.0 0.0 0.00 0.00 0.00 44 1013.3
20260902001531 96 331 0.0 0.0 0.00 0.00 0.00 43 1013.4
20260902001039 96 331 0.0 0.0 0.00 0.00 0.00 43 1013.4
20260902000546 97 331 0.0 0.0 0.00 0.00 0.00 43 1013.5
20260902000038 97 332 0.0 0.0 0.00 0.00 0.00 43 1013.5
20260901235544 97 331 0.0 0.0 0.00 0.00 0.00 43 1013.5
20260901235038 97 332 0.0 0.0 0.00 0.00 0.00 43 1013.5
20260901234546 97 331 0.0 0.0 0.00 0.00 0.00 43 1013.6
20260901234036 97 332 0.0 0.0 0.00 0.00 0.00 43 1013.7
20260901233544 97 331 0.0 0.0 0.00 0.00 0.00 43 1013.6
20260901233055 97 331 0.0 0.0 0.00 0.00 0.00 42 1013.7
20260901232545 98 331 0.0 0.0 0.00 0.00 0.00 42 1013.7
20260901232033 98 331 0.0 0.0 0.00 0.00 0.00 42 1013.6
20260901231542 98 332 0.0 0.0 0.00 0.00 0.00 42 1013.7
20260901231030 97 332 0.0 0.0 0.00 0.00 0.00 42 1013.7
20260901230540 97 331 0.0 0.0 0.00 0.00 0.00 42 1013.7
20260901230036 98 331 0.0 0.0 0.00 0.00 0.00 42 1013.8
20260901225604 98 330 0.0 0.0 0.00 0.00 0.00 41 1013.7
20260901225034 99 331 0.0 0.0 0.00 0.00 0.00 41 1013.7
20260901224600 98 331 0.0 0.0 0.00 0.00 0.00 41 1013.7
20260901224035 99 331 0.0 0.0 0.00 0.00 0.00 41 1013.7
20260901223601 99 331 0.0 0.0 0.00 0.00 0.00 40 1013.7
20260901223051 100 331 0.0 0.0 0.00 0.00 0.00 40 1013.7
20260901222537 100 331 0.0 0.0 0.00 0.00 0.00 40 1013.6
20260901222051 100 332 0.0 0.0 0.00 0.00 0.00 40 1013.6
20260901221542 99 333 0.0 0.0 0.00 0.00 0.00 40 1013.6
20260901221037 100 331 0.0 0.0 0.00 0.00 0.00 40 1013.7
20260901220545 99 333 0.0 0.0 0.00 0.00 0.00 40 1013.7
20260901220038 99 333 0.0 0.0 0.00 0.00 0.00 40 1013.8
20260901215546 99 331 0.0 0.0 0.00 0.00 0.00 40 1013.9
20260901215034 98 331 0.0 0.0 0.00 0.00 0.00 42 1013.9
20260901214543 97 331 0.0 0.0 0.00 0.00 0.00 42 1013.9
20260901214032 97 331 0.0 0.0 0.00 0.00 0.00 42 1013.9
20260901213546 98 332 0.0 0.0 0.00 0.00 0.00 42 1014.0
20260901213100 98 331 0.0 0.0 0.00 0.00 0.00 41 1014.0
20260901212532 99 331 0.0 0.0 0.00 0.00 0.00 40 1014.1
20260901212040 100 331 0.0 0.0 0.00 0.00 0.00 40 1014.1
20260901211610 100 332 0.0 0.0 0.00 0.00 0.00 40 1014.1
20260901211037 100 331 0.0 0.0 0.00 0.00 0.00 41 1014.2
20260901210550 100 331 0.0 0.0 0.00 0.00 0.00 41 1014.3
20260901210037 100 331 0.0 0.0 0.00 0.00 0.00 41 1014.3
20260901205610 100 329 0.0 0.0 0.00 0.00 0.00 41 1014.3
20260901205040 100 330 0.0 0.0 0.00 0.00 0.00 41 1014.3
20260901204532 100 330 0.0 0.0 0.00 0.00 0.00 42 1014.5
20260901204102 99 333 0.0 0.0 0.00 0.00 0.00 43 1014.4
20260901203555 98 333 0.0 0.0 0.00 0.00 0.00 44 1014.6
20260901203048 98 331 0.0 0.0 0.00 0.00 0.00 44 1014.6
20260901202539 98 331 0.0 0.0 0.00 0.00 0.00 44 1014.7
20260901202031 98 329 0.0 0.0 0.00 0.00 0.00 46 1014.7
20260901201540 97 330 0.0 0.0 0.00 0.00 0.00 46 1014.7
20260901201054 97 330 0.0 0.0 0.00 0.00 0.00 46 1014.8
20260901200545 97 330 0.0 0.0 0.00 0.00 0.00 45 1014.9
20260901200053 97 333 0.0 0.0 0.00 0.00 0.00 45 1015.0
20260901195546 97 332 0.0 0.0 0.00 0.00 0.00 44 1015.1
20260901195037 97 331 0.0 0.0 0.00 0.00 0.00 45 1015.1
20260901194545 98 330 0.0 0.0 0.00 0.00 0.00 44 1015.2
20260901194035 99 330 0.0 0.0 0.00 0.00 0.00 42 1015.3
20260901193528 99 330 0.0 0.0 0.00 0.00 0.00 43 1015.2
20260901193040 99 331 0.0 0.0 0.00 0.00 0.00 45 1015.2